Zurück zum Katalog

KINEIS-1C

AktivKommunikationSSO
NORAD 60081·PAYLOAD·🇫🇷 France

Gestartet Jun 20, 2024 von Rocket Lab Launch Complex 1

Loading…

Nächste Überflüge (nächste 24 Stunden)

TLE

AktuellSource: Space-Track

Epoche: Sep 14, 2026, 13:23 UTC

1 60081U 24114C   26257.55791637  .00000501  00000-0  71907-4 0  9996
2 60081  97.9827 281.1831 0000582 119.2085 240.9185 14.80743228120601

Verfolge KINEIS-1C in Echtzeit mit AllMySat

Download on the App Store